Погода в Сенигаллии

Италия     43°42′50″N   13°13′21″E
темп.,
°C
ветер,
м/с
пор.,
м/с
влажн.,
%
обл.,
%
осадки,
мм/ч
давл.,
гПа
погр.,
м
5 марта, пт
пт501:00+10юз586935 0.0 1019282
04:00+9юз567815 0.0 1018177
07:00+9юз56778 0.0 1017164
10:00+12юз456784 0.0 1018359
13:00+13всв316272 0.0 1017434
16:00+12в567223 0.0 1016197
19:00+11юв467162 0.0 1017163
22:00+11ююв466670 0.0 1019184
6 марта, сб
сб601:00+11вюв678084 0.3 1021247
04:00+10в111278100 0.7 1022708
07:00+9в7869100 2.0 10251047
10:00+9св4461100 0.1 1027951
13:00+8с437378 0.1 1028534
16:00+9с45629 0.0 1027671
19:00+8с56584 0.0 1027603
22:00+8с55600 0.0 1028639
7 марта, вс
вс701:00+7с34570 0.0 1028606
04:00+7с34560 0.0 1027620
07:00+7ссз23590 0.0 1027506
10:00+7зсз226344 0.0 1026349
13:00+8св226228 0.0 1025403
16:00+9в345626 0.0 1022448
19:00+9юв446829 0.0 1021408
22:00+9ююв4579100 0.1 1021356
8 марта, пн
пн801:00+9юв2388100 0.9 1019308
04:00+8ююв3493100 2.8 1017272
07:00+8ююв4692100 7.4 1017317
10:00+9ю2290100 1.1 1016283
13:00+9ссз2295100 3.6 1016195
16:00+10вюв3592100 4.0 1015407
19:00+10юв4591100 5.7 1015341
22:00+10в1287100 0.9 1016293
9 марта, вт
вт901:00+10всв5685100 2.3 1016490
04:00+10св4574100 0.8 1015484
07:00+10ссв3370100 1.0 1016533
10:00+10ссв5573100 0.0 1017489
13:00+10с666468 0.0 1018711
16:00+10с675874 0.0 1017994
19:00+9с786439 0.0 1018829
22:00+9ссз55630 0.0 1021683